ASIASAT 5               
1 35696U 09042A   19261.43417804 -.00000310  00000-0  00000+0 0  9998
2 35696   0.0125 163.7095 0001525 359.9265  90.2179  1.00269119 36963
BREEZE-M R/B            
1 35697U 09042B   19260.66108841 -.00000088  00000-0  00000-0 0  9994
2 35697   7.3150  45.9821 3157037  62.0048 326.4050  1.59999760 58753